When you browse on this site, cookies collect data to enhance your experience and personalize the content and advertising you see.
Visit our Privacy Policy to learn more. By continuing to use the site, you agree to this use of cookies and data.

Hourly Weather Ganja

Today, 7 July, Tuesday

Time Temperature Precipitation Wind Pressure Humidity
00:00 +27°C° 0 mm 3 mps 722 mmHg 31%
01:00 +26°C° 0 mm 3 mps 722 mmHg 33%
02:00 +25°C° 0 mm 3 mps 721 mmHg 34%
03:00 +24°C° 0 mm 2 mps 721 mmHg 35%
04:00 +25°C° 0 mm 2 mps 721 mmHg 36%
05:00 +25°C° 0 mm 2 mps 721 mmHg 37%
06:00 +26°C° 0 mm 1 mps 721 mmHg 38%
07:00 +28°C° 0 mm 2 mps 721 mmHg 35%
08:00 +29°C° 0 mm 2 mps 722 mmHg 32%
09:00 +31°C° 0 mm 2 mps 722 mmHg 29%
10:00 +34°C° 0 mm 3 mps 721 mmHg 26%
11:00 +35°C° 0 mm 4 mps 721 mmHg 23%
12:00 +37°C° 0 mm 5 mps 721 mmHg 20%
13:00 +37°C° 0 mm 5 mps 721 mmHg 20%
14:00 +39°C° 0 mm 5 mps 720 mmHg 20%
15:00 +39°C° 0 mm 5 mps 720 mmHg 20%
16:00 +37°C° 0 mm 5 mps 720 mmHg 22%
17:00 +37°C° 0 mm 5 mps 720 mmHg 24%
18:00 +36°C° 0 mm 4 mps 720 mmHg 26%
19:00 +34°C° 0 mm 5 mps 720 mmHg 28%
20:00 +33°C° 0 mm 5 mps 721 mmHg 29%
21:00 +30°C° 0 mm 5 mps 721 mmHg 31%
22:00 +29°C° 0 mm 5 mps 721 mmHg 32%
23:00 +28°C° 0 mm 4 mps 721 mmHg 33%

Tomorrow, 8 July, Wednesday

Time Temperature Precipitation Wind Pressure Humidity
00:00 +28°C° 0 mm 3 mps 721 mmHg 34%
01:00 +27°C° 0 mm 3 mps 721 mmHg 36%
02:00 +26°C° 0 mm 2 mps 721 mmHg 37%
03:00 +25°C° 0 mm 2 mps 721 mmHg 39%
04:00 +26°C° 0 mm 1 mps 721 mmHg 40%
05:00 +26°C° 0 mm 1 mps 721 mmHg 42%
06:00 +27°C° 0 mm 1 mps 721 mmHg 43%
07:00 +28°C° 0 mm 1 mps 721 mmHg 40%
08:00 +30°C° 0 mm 1 mps 721 mmHg 37%
09:00 +31°C° 0 mm 2 mps 721 mmHg 33%
10:00 +32°C° 0 mm 2 mps 720 mmHg 31%
11:00 +35°C° 0 mm 2 mps 720 mmHg 29%
12:00 +36°C° 0 mm 2 mps 720 mmHg 27%
13:00 +37°C° 0 mm 2 mps 719 mmHg 25%
14:00 +37°C° 0 mm 2 mps 719 mmHg 24%
15:00 +38°C° 0 mm 3 mps 719 mmHg 23%
16:00 +38°C° 0.1 mm 2 mps 719 mmHg 26%
17:00 +37°C° 0.1 mm 2 mps 719 mmHg 28%
18:00 +36°C° 0.1 mm 2 mps 719 mmHg 31%
19:00 +35°C° 0 mm 2 mps 719 mmHg 33%
20:00 +33°C° 0 mm 3 mps 720 mmHg 35%
21:00 +31°C° 0 mm 3 mps 720 mmHg 38%
22:00 +30°C° 0 mm 3 mps 720 mmHg 41%
23:00 +29°C° 0 mm 2 mps 720 mmHg 44%

Day after tomorrow, 9 July, Thursday

Time Temperature Precipitation Wind Pressure Humidity
00:00 +28°C° 0 mm 2 mps 720 mmHg 47%
01:00 +27°C° 0.1 mm 3 mps 721 mmHg 50%
02:00 +27°C° 0.1 mm 4 mps 721 mmHg 54%
03:00 +26°C° 0.1 mm 5 mps 721 mmHg 58%
04:00 +26°C° 0 mm 4 mps 721 mmHg 57%
05:00 +27°C° 0 mm 4 mps 721 mmHg 57%
06:00 +27°C° 0 mm 4 mps 721 mmHg 57%
07:00 +28°C° 0 mm 5 mps 722 mmHg 53%
08:00 +30°C° 0 mm 5 mps 722 mmHg 48%
09:00 +32°C° 0 mm 6 mps 722 mmHg 44%
10:00 +33°C° 0.1 mm 5 mps 722 mmHg 42%
11:00 +34°C° 0.1 mm 4 mps 722 mmHg 39%
12:00 +36°C° 0.1 mm 4 mps 722 mmHg 37%
13:00 +36°C° 0.2 mm 3 mps 722 mmHg 36%
14:00 +36°C° 0.2 mm 2 mps 721 mmHg 35%
15:00 +37°C° 0.2 mm 2 mps 721 mmHg 34%
16:00 +36°C° 0.2 mm 2 mps 721 mmHg 35%
17:00 +35°C° 0.2 mm 1 mps 722 mmHg 35%
18:00 +35°C° 0.2 mm 1 mps 722 mmHg 36%
19:00 +34°C° 0.2 mm 2 mps 723 mmHg 41%
20:00 +31°C° 0.2 mm 3 mps 723 mmHg 45%
21:00 +29°C° 0.2 mm 3 mps 724 mmHg 50%
22:00 +28°C° 0.4 mm 3 mps 724 mmHg 54%
23:00 +27°C° 0.4 mm 3 mps 724 mmHg 58%

10 July, Friday

Time Temperature Precipitation Wind Pressure Humidity
00:00 +26°C° 0.4 mm 3 mps 724 mmHg 62%
01:00 +26°C° 0.3 mm 3 mps 724 mmHg 64%
02:00 +25°C° 0.3 mm 3 mps 724 mmHg 66%
03:00 +25°C° 0.3 mm 3 mps 724 mmHg 67%
04:00 +25°C° 0.2 mm 3 mps 724 mmHg 67%
05:00 +25°C° 0.2 mm 3 mps 724 mmHg 67%
06:00 +26°C° 0.2 mm 2 mps 725 mmHg 67%
07:00 +27°C° 0.2 mm 3 mps 725 mmHg 64%
08:00 +28°C° 0.2 mm 3 mps 725 mmHg 61%
09:00 +29°C° 0.2 mm 3 mps 725 mmHg 57%
10:00 +30°C° 0.1 mm 3 mps 725 mmHg 54%
11:00 +31°C° 0.1 mm 2 mps 725 mmHg 50%
12:00 +32°C° 0.1 mm 2 mps 724 mmHg 46%
13:00 +34°C° 0.1 mm 3 mps 724 mmHg 43%
14:00 +35°C° 0.1 mm 3 mps 724 mmHg 40%
15:00 +36°C° 0.1 mm 4 mps 723 mmHg 37%
16:00 +35°C° 0.5 mm 4 mps 723 mmHg 41%
17:00 +33°C° 0.5 mm 5 mps 723 mmHg 45%
18:00 +32°C° 0.5 mm 5 mps 723 mmHg 48%
19:00 +30°C° 0.1 mm 5 mps 724 mmHg 50%
20:00 +29°C° 0.1 mm 4 mps 724 mmHg 52%
21:00 +28°C° 0.1 mm 4 mps 725 mmHg 54%
22:00 +28°C° 0.1 mm 4 mps 725 mmHg 54%
23:00 +28°C° 0.1 mm 4 mps 725 mmHg 54%

11 July, Saturday

Time Temperature Precipitation Wind Pressure Humidity
00:00 +27°C° 0.1 mm 4 mps 725 mmHg 54%
01:00 +26°C° 0.5 mm 4 mps 725 mmHg 59%
02:00 +25°C° 0.5 mm 4 mps 725 mmHg 64%
03:00 +25°C° 0.5 mm 3 mps 725 mmHg 69%
04:00 +25°C° 0.5 mm 3 mps 725 mmHg 71%
05:00 +25°C° 0.5 mm 2 mps 725 mmHg 73%
06:00 +24°C° 0.5 mm 1 mps 725 mmHg 75%
07:00 +25°C° 0.3 mm 2 mps 725 mmHg 71%
08:00 +27°C° 0.3 mm 2 mps 725 mmHg 67%
09:00 +28°C° 0.3 mm 2 mps 725 mmHg 64%
10:00 +29°C° 0 mm 2 mps 724 mmHg 60%
11:00 +30°C° 0 mm 2 mps 724 mmHg 56%
12:00 +31°C° 0 mm 2 mps 724 mmHg 52%
13:00 +31°C° 0 mm 2 mps 724 mmHg 49%
14:00 +32°C° 0 mm 2 mps 723 mmHg 45%
15:00 +34°C° 0 mm 3 mps 723 mmHg 42%
16:00 +34°C° 0 mm 2 mps 723 mmHg 43%
17:00 +34°C° 0 mm 2 mps 723 mmHg 43%
18:00 +32°C° 0 mm 2 mps 723 mmHg 44%
19:00 +31°C° 0.2 mm 2 mps 723 mmHg 48%
20:00 +30°C° 0.2 mm 2 mps 723 mmHg 51%
21:00 +29°C° 0.2 mm 2 mps 724 mmHg 55%
22:00 +29°C° 0.2 mm 3 mps 723 mmHg 55%
23:00 +28°C° 0.2 mm 3 mps 723 mmHg 56%

12 July, Sunday

Time Temperature Precipitation Wind Pressure Humidity
00:00 +28°C° 0.2 mm 3 mps 723 mmHg 57%
01:00 +27°C° 0.5 mm 3 mps 723 mmHg 61%
02:00 +26°C° 0.5 mm 3 mps 723 mmHg 65%
03:00 +25°C° 0.5 mm 2 mps 723 mmHg 69%
04:00 +25°C° 0.2 mm 2 mps 723 mmHg 70%
05:00 +25°C° 0.2 mm 1 mps 723 mmHg 71%
06:00 +25°C° 0.2 mm 1 mps 723 mmHg 72%
07:00 +26°C° 0 mm 1 mps 723 mmHg 69%
08:00 +26°C° 0 mm 2 mps 723 mmHg 67%
09:00 +27°C° 0 mm 2 mps 723 mmHg 64%
10:00 +28°C° 0.1 mm 2 mps 722 mmHg 61%
11:00 +29°C° 0.1 mm 2 mps 722 mmHg 57%
12:00 +30°C° 0.1 mm 2 mps 722 mmHg 54%
13:00 +31°C° 0 mm 2 mps 722 mmHg 51%
14:00 +31°C° 0 mm 2 mps 721 mmHg 47%
15:00 +32°C° 0 mm 2 mps 721 mmHg 44%
16:00 +32°C° 0 mm 2 mps 721 mmHg 44%
17:00 +32°C° 0 mm 2 mps 721 mmHg 43%
18:00 +32°C° 0 mm 2 mps 720 mmHg 43%
19:00 +31°C° 0.1 mm 2 mps 721 mmHg 46%
20:00 +30°C° 0.1 mm 2 mps 721 mmHg 50%
21:00 +28°C° 0.1 mm 2 mps 721 mmHg 54%
22:00 +28°C° 0.1 mm 2 mps 721 mmHg 55%
23:00 +28°C° 0.1 mm 2 mps 721 mmHg 57%
Show more